Wrangell, AK

10:19 AM AKST on February 25, 2017 (GMT -0900)
Wrangell

Weather History for PAWG - February, 2014

Change the Weather History Date:

Sunday, February 9, 2014

  Actual Average Record
Temperature  
Mean Temperature 19 °F -  
Max Temperature 24 °F 36 °F 51 °F (2012)
Min Temperature 14 °F 27 °F 10 °F (1985)
Degree Days  
Heating Degree Days 46    
Moisture  
Dew Point 2 °F    
Average Humidity 45    
Maximum Humidity 58    
Minimum Humidity 36    
Precipitation  
Precipitation 0.00 in - - ()
Sea Level Pressure  
Sea Level Pressure 30.04 in    
Wind  
Wind Speed 7 mph (East)    
Max Wind Speed 21 mph    
Max Gust Speed 28 mph    
Visibility 10 miles    
Events      
Averages and records for this station are not official NWS values.
T = Trace of Precipitation, MM = Missing Value Source: NWS Daily Summary

Daily Weather History Graph

Daily Weather History Graph

Search for Another Location

Airport or City:

Trip Planner

Search our weather history database for the weather conditions in past years. The results will help you decide how hot, cold, wet, or windy it might be!

Date:

Astronomy

Feb. 09, 2014 Rise Set
Actual Time 7:29 AM AKST 4:39 PM AKST
Civil Twilight 6:49 AM AKST 5:19 PM AKST
Nautical Twilight 6:04 AM AKST 6:03 PM AKST
Astronomical Twilight 5:20 AM AKST 6:47 PM AKST
Moon 12:03 PM AKST (2/9) 4:01 AM AKST (2/9)
Length of Visible Light 10h 30m
Length of Day
9h 09m
Waxing Gibbous, 78% of the Moon is Illuminated
Feb 9
Waxing Gibbous
Feb 14
Full
Feb 22
Last Quarter
Feb 28
New
Mar 8
First Quarter

Hourly Weather History & Observations

Time (AKST) Temp. Windchill Dew Point Humidity Pressure Visibility Wind Dir Wind Speed Gust Speed Precip Events Conditions
12:16 AM 17.6 °F 12.3 °F 5.0 °F 58% 30.10 in 10.0 mi West 3.5 mph - N/A   Clear
12:36 AM 17.6 °F 12.3 °F 3.2 °F 53% 30.10 in 10.0 mi NNW 3.5 mph - N/A   Clear
12:56 AM 17.6 °F 10.7 °F 3.2 °F 53% 30.09 in 10.0 mi North 4.6 mph - N/A   Clear
1:16 AM 17.6 °F 9.3 °F 3.2 °F 53% 30.09 in 10.0 mi NNW 5.8 mph - N/A   Clear
1:36 AM 17.6 °F 8.2 °F 3.2 °F 53% 30.09 in 10.0 mi WNW 6.9 mph - N/A   Clear
1:56 AM 19.4 °F 14.3 °F 3.2 °F 49% 30.09 in 10.0 mi SW 3.5 mph - N/A   Clear
2:16 AM 17.6 °F - 1.4 °F 49% 30.09 in 10.0 mi Calm Calm - N/A   Clear
2:36 AM 17.6 °F 10.7 °F 3.2 °F 53% 30.08 in 10.0 mi NNW 4.6 mph - N/A   Clear
2:56 AM 17.6 °F 8.2 °F 3.2 °F 53% 30.08 in 10.0 mi NNW 6.9 mph - N/A   Clear
3:16 AM 17.6 °F 9.3 °F 3.2 °F 53% 30.07 in 10.0 mi WNW 5.8 mph - N/A   Clear
3:36 AM 17.6 °F 10.7 °F 1.4 °F 49% 30.07 in 10.0 mi WSW 4.6 mph - N/A   Clear
3:56 AM 17.6 °F - 3.2 °F 53% 30.07 in 10.0 mi Calm Calm - N/A   Clear
4:16 AM 15.8 °F - 1.4 °F 53% 30.06 in 10.0 mi Calm Calm - N/A   Clear
4:36 AM 15.8 °F 8.6 °F 1.4 °F 53% 30.06 in 10.0 mi WNW 4.6 mph - N/A   Clear
4:56 AM 17.6 °F 9.3 °F 3.2 °F 53% 30.06 in 10.0 mi NW 5.8 mph - N/A   Clear
5:16 AM 17.6 °F 8.2 °F 1.4 °F 49% 30.06 in 10.0 mi NNW 6.9 mph - N/A   Clear
5:36 AM 17.6 °F 8.2 °F 1.4 °F 49% 30.06 in 10.0 mi NNW 6.9 mph - N/A   Clear
5:56 AM 17.6 °F 12.3 °F 1.4 °F 49% 30.05 in 10.0 mi NW 3.5 mph - N/A   Clear
6:16 AM 14.0 °F - -0.4 °F 53% 30.05 in 10.0 mi Calm Calm - N/A   Clear
6:36 AM 15.8 °F - 1.4 °F 53% 30.05 in 10.0 mi Calm Calm - N/A   Partly Cloudy
6:56 AM 17.6 °F 10.7 °F 1.4 °F 49% 30.05 in 10.0 mi SSW 4.6 mph - N/A   Partly Cloudy
7:16 AM 14.0 °F 6.5 °F -0.4 °F 53% 30.05 in 10.0 mi SW 4.6 mph - N/A   Partly Cloudy
7:36 AM 15.8 °F - 1.4 °F 53% 30.06 in 10.0 mi Calm Calm - N/A   Partly Cloudy
7:56 AM 15.8 °F - 1.4 °F 53% 30.06 in 10.0 mi Calm Calm - N/A   Partly Cloudy
8:16 AM 15.8 °F - 3.2 °F 58% 30.06 in 10.0 mi Calm Calm - N/A   Partly Cloudy
8:36 AM 15.8 °F - 3.2 °F 58% 30.07 in 10.0 mi Calm Calm - N/A   Partly Cloudy
8:56 AM 17.6 °F 10.7 °F 3.2 °F 53% 30.07 in 10.0 mi South 4.6 mph - N/A   Partly Cloudy
9:16 AM 19.4 °F 11.5 °F 3.2 °F 49% 30.07 in 10.0 mi SE 5.8 mph - N/A   Partly Cloudy
9:36 AM 19.4 °F 8.6 °F 3.2 °F 49% 30.07 in 10.0 mi ESE 9.2 mph - N/A   Partly Cloudy
9:56 AM 21.2 °F 11.7 °F 3.2 °F 46% 30.07 in 10.0 mi East 8.1 mph - N/A   Partly Cloudy
10:16 AM 21.2 °F 16.4 °F 1.4 °F 42% 30.08 in 10.0 mi SW 3.5 mph - N/A   Partly Cloudy
10:36 AM 19.4 °F 11.5 °F 5.0 °F 54% 30.08 in 10.0 mi NNW 5.8 mph - N/A   Partly Cloudy
10:56 AM 21.2 °F 14.9 °F 3.2 °F 46% 30.08 in 10.0 mi ESE 4.6 mph - N/A   Partly Cloudy
11:16 AM 23.0 °F 13.9 °F 3.2 °F 43% 30.07 in 10.0 mi East 8.1 mph - N/A   Partly Cloudy
11:36 AM 23.0 °F 13.1 °F 3.2 °F 43% 30.07 in 10.0 mi East 9.2 mph - N/A   Partly Cloudy
11:56 AM 24.8 °F 16.1 °F 1.4 °F 36% 30.07 in 10.0 mi East 8.1 mph - N/A   Partly Cloudy
12:16 PM 24.8 °F 16.9 °F 1.4 °F 36% 30.07 in 10.0 mi East 6.9 mph - N/A   Partly Cloudy
12:36 PM 24.8 °F 16.1 °F 1.4 °F 36% 30.06 in 10.0 mi East 8.1 mph - N/A   Partly Cloudy
12:56 PM 24.8 °F 16.9 °F 3.2 °F 40% 30.06 in 10.0 mi East 6.9 mph - N/A   Partly Cloudy
1:16 PM 24.8 °F 14.6 °F 3.2 °F 40% 30.05 in 10.0 mi East 10.4 mph - N/A   Partly Cloudy
1:36 PM 24.8 °F 15.3 °F 1.4 °F 36% 30.05 in 10.0 mi East 9.2 mph - N/A   Partly Cloudy
1:56 PM 24.8 °F 16.1 °F 1.4 °F 36% 30.05 in 10.0 mi East 8.1 mph - N/A   Partly Cloudy
2:16 PM 24.8 °F 14.6 °F 1.4 °F 36% 30.04 in 10.0 mi ENE 10.4 mph - N/A   Partly Cloudy
2:36 PM 24.8 °F 15.3 °F 1.4 °F 36% 30.04 in 10.0 mi East 9.2 mph 16.1 mph N/A   Partly Cloudy
2:56 PM 24.8 °F 14.0 °F 1.4 °F 36% 30.04 in 10.0 mi East 11.5 mph - N/A   Partly Cloudy
3:16 PM 24.8 °F 14.0 °F 1.4 °F 36% 30.03 in 10.0 mi East 11.5 mph 17.3 mph N/A   Partly Cloudy
3:36 PM 24.8 °F 14.0 °F 1.4 °F 36% 30.03 in 10.0 mi East 11.5 mph - N/A   Partly Cloudy
3:56 PM 24.8 °F 12.4 °F 1.4 °F 36% 30.03 in 10.0 mi East 15.0 mph - N/A   Partly Cloudy
4:16 PM 23.0 °F 11.1 °F 1.4 °F 39% 30.03 in 10.0 mi East 12.7 mph 18.4 mph N/A   Partly Cloudy
4:36 PM 23.0 °F 11.1 °F 1.4 °F 39% 30.03 in 10.0 mi East 12.7 mph - N/A   Partly Cloudy
4:56 PM 21.2 °F 7.3 °F 1.4 °F 42% 30.03 in 10.0 mi East 16.1 mph 21.9 mph N/A   Partly Cloudy
5:16 PM 21.2 °F 7.3 °F 1.4 °F 42% 30.03 in 10.0 mi East 16.1 mph 24.2 mph N/A   Partly Cloudy
5:36 PM 21.2 °F 6.8 °F 1.4 °F 42% 30.02 in 10.0 mi East 17.3 mph 23.0 mph N/A   Partly Cloudy
5:56 PM 21.2 °F 6.8 °F 1.4 °F 42% 30.02 in 10.0 mi East 17.3 mph 23.0 mph N/A   Partly Cloudy
6:16 PM 21.2 °F 7.3 °F 1.4 °F 42% 30.02 in 10.0 mi East 16.1 mph 24.2 mph N/A   Partly Cloudy
6:36 PM 21.2 °F 6.4 °F 1.4 °F 42% 30.02 in 10.0 mi East 18.4 mph 24.2 mph N/A   Partly Cloudy
6:56 PM 21.2 °F 5.6 °F 1.4 °F 42% 30.01 in 10.0 mi East 20.7 mph 24.2 mph N/A   Clear
7:16 PM 21.2 °F 7.3 °F 1.4 °F 42% 30.01 in 10.0 mi East 16.1 mph 23.0 mph N/A   Clear
7:36 PM 21.2 °F 7.3 °F -0.4 °F 39% 30.01 in 10.0 mi East 16.1 mph 25.3 mph N/A   Clear
7:56 PM 21.2 °F 6.8 °F 1.4 °F 42% 30.00 in 10.0 mi East 17.3 mph 23.0 mph N/A   Clear
8:16 PM 21.2 °F 7.3 °F -0.4 °F 39% 30.01 in 10.0 mi East 16.1 mph 20.7 mph N/A   Clear
8:36 PM 21.2 °F 7.8 °F -0.4 °F 39% 30.00 in 10.0 mi East 15.0 mph 23.0 mph N/A   Clear
8:56 PM 21.2 °F 6.8 °F 1.4 °F 42% 30.00 in 10.0 mi East 17.3 mph 23.0 mph N/A   Clear
9:16 PM 21.2 °F 7.3 °F -0.4 °F 39% 30.00 in 10.0 mi East 16.1 mph 21.9 mph N/A   Clear
9:36 PM 21.2 °F 6.0 °F -0.4 °F 39% 30.00 in 10.0 mi East 19.6 mph 25.3 mph N/A   Clear
9:56 PM 21.2 °F 5.6 °F -0.4 °F 39% 29.99 in 10.0 mi East 20.7 mph 25.3 mph N/A   Clear
10:16 PM 21.2 °F 6.4 °F -0.4 °F 39% 29.98 in 10.0 mi East 18.4 mph - N/A   Clear
10:36 PM 21.2 °F 6.8 °F -0.4 °F 39% 29.98 in 10.0 mi East 17.3 mph 24.2 mph N/A   Clear
10:56 PM 21.2 °F 6.0 °F 1.4 °F 42% 29.97 in 10.0 mi East 19.6 mph 26.5 mph N/A   Clear
11:16 PM 21.2 °F 5.6 °F -0.4 °F 39% 29.96 in 10.0 mi East 20.7 mph 26.5 mph N/A   Clear
11:36 PM 21.2 °F 6.4 °F -0.4 °F 39% 29.96 in 10.0 mi East 18.4 mph 27.6 mph N/A   Clear
11:56 PM 21.2 °F 6.0 °F -0.4 °F 39% 29.94 in 10.0 mi East 19.6 mph 25.3 mph N/A   Clear